Fernandina Beach, FL

5:26 PM EST on December 07, 2019 (GMT -0500)
Fernandina Beach

Weather History for KFHB - October, 2019

Change the Weather History Date:

Wednesday, October 30, 2019

  Actual Average (WUND) Record (WUND)
Temperature  
Mean Temperature 78 °F -  
Max Temperature 83 °F - - (-1)
Min Temperature 73 °F - - (-1)
Cooling Degree Days 13    
Growing Degree Days 28 (Base 50)    
Moisture  
Dew Point 77 °F    
Average Humidity 92    
Maximum Humidity 100    
Minimum Humidity 80    
Precipitation  
Precipitation 0.00 in - - ()
Sea Level Pressure  
Sea Level Pressure 30.07 in    
Wind  
Wind Speed 8 mph (ESE)    
Max Wind Speed 15 mph    
Max Gust Speed -    
Visibility 9 miles    
Events Fog    
Averages and records for this station are not official NWS values.
T = Trace of Precipitation, MM = Missing Value Source: NWS Daily Summary

Daily Weather History Graph

Daily Weather History Graph

Search for Another Location

Airport or City:

Astronomy

Oct. 30, 2019 Rise Set
Actual Time 7:38 AM EDT 6:39 PM EDT
Civil Twilight 7:14 AM EDT 7:04 PM EDT
Nautical Twilight 6:45 AM EDT 7:32 PM EDT
Astronomical Twilight 6:17 AM EDT 8:01 PM EDT
Moon 10:12 AM EDT (10/30) 8:55 PM EDT (10/30)
Length of Visible Light 11h 50m
Length of Day
11h 00m
Waxing Crescent, 8% of the Moon is Illuminated
Oct 30
Waxing Crescent
Nov 4
First Quarter
Nov 12
Full
Nov 19
Last Quarter
Nov 26
New

Hourly Weather History & Observations

Time (EDT) Temp. Heat Index Dew Point Humidity Pressure Visibility Wind Dir Wind Speed Gust Speed Precip Events Conditions
12:15 AM 76.8 °F - 76.5 °F 99% 30.12 in 10.0 mi ENE 11.5 mph - N/A   Overcast
12:35 AM 76.6 °F - 76.5 °F 99% 30.12 in 7.0 mi ENE 11.5 mph - N/A   Overcast
12:55 AM 76.6 °F - 76.3 °F 99% 30.11 in 10.0 mi ENE 15.0 mph - N/A   Overcast
1:15 AM 76.5 °F - 75.9 °F 98% 30.11 in 10.0 mi ENE 12.7 mph - N/A   Mostly Cloudy
1:35 AM 76.3 °F - 75.9 °F 99% 30.10 in 7.0 mi ENE 11.5 mph - N/A   Mostly Cloudy
1:55 AM 76.6 °F - 76.3 °F 99% 30.10 in 7.0 mi ENE 8.1 mph - N/A   Overcast
2:15 AM 76.6 °F - 76.3 °F 99% 30.10 in 10.0 mi ENE 11.5 mph - N/A   Overcast
2:35 AM 76.5 °F - 75.9 °F 98% 30.09 in 10.0 mi ENE 9.2 mph - N/A   Overcast
2:55 AM 76.6 °F - 76.1 °F 98% 30.09 in 10.0 mi ENE 9.2 mph - N/A   Overcast
3:15 AM 76.3 °F - 75.9 °F 99% 30.08 in 10.0 mi ENE 9.2 mph - N/A   Mostly Cloudy
3:35 AM 76.3 °F - 75.9 °F 99% 30.07 in 10.0 mi ENE 10.4 mph - N/A   Mostly Cloudy
3:55 AM 76.5 °F - 76.1 °F 99% 30.07 in 10.0 mi ENE 10.4 mph - N/A   Overcast
4:15 AM 76.5 °F - 76.3 °F 99% 30.06 in 7.0 mi ENE 9.2 mph - N/A   Overcast
4:35 AM 76.3 °F - 76.3 °F 100% 30.06 in 7.0 mi East 8.1 mph - N/A   Overcast
4:55 AM 76.1 °F - 76.1 °F 100% 30.06 in 7.0 mi ENE 8.1 mph - N/A   Overcast
5:15 AM 75.6 °F - 75.2 °F 99% 30.06 in 7.0 mi East 4.6 mph - N/A   Scattered Clouds
5:35 AM 75.4 °F - - N/A% 30.07 in 7.0 mi East 4.6 mph - N/A   Haze
5:55 AM 75.4 °F - - N/A% 30.07 in 7.0 mi East 4.6 mph - N/A   Clear
6:15 AM 75.2 °F - - N/A% 30.07 in 7.0 mi East 4.6 mph - N/A   Haze
6:35 AM 74.8 °F - - N/A% 30.08 in 5.0 mi Calm Calm - N/A   Haze
6:55 AM 74.5 °F - - N/A% 30.07 in 1.8 mi ENE 3.5 mph - N/A   Clear
7:15 AM 74.3 °F - - N/A% 30.08 in 3.5 mi East 3.5 mph - N/A   Clear
7:35 AM 73.4 °F - - N/A% 30.09 in 0.2 mi Calm Calm - N/A Fog Fog
7:55 AM 73.6 °F - - N/A% 30.09 in 0.2 mi Calm Calm - N/A Fog Fog
8:15 AM 73.9 °F - - N/A% 30.10 in 7.0 mi Calm Calm - N/A   Haze
8:35 AM 75.7 °F - - N/A% 30.11 in 7.0 mi Calm Calm - N/A   Mostly Cloudy
8:55 AM 77.9 °F - - N/A% 30.11 in 10.0 mi Calm Calm - N/A   Mostly Cloudy
9:15 AM 79.5 °F - 78.3 °F 96% 30.11 in 10.0 mi ENE 4.6 mph - N/A   Scattered Clouds
9:35 AM 80.2 °F 86.8 °F 78.1 °F 93% 30.12 in 10.0 mi East 4.6 mph - N/A   Scattered Clouds
9:55 AM 80.8 °F 88.0 °F 78.1 °F 91% 30.12 in 10.0 mi East 4.6 mph - N/A   Clear
10:15 AM 81.1 °F 88.7 °F 77.5 °F 89% 30.12 in 10.0 mi East 4.6 mph - N/A   Scattered Clouds
10:35 AM 82.2 °F 91.3 °F 78.1 °F 87% 30.12 in 10.0 mi East 6.9 mph - N/A   Scattered Clouds
10:55 AM 82.2 °F 91.3 °F 78.1 °F 87% 30.11 in 10.0 mi East 8.1 mph - N/A   Clear
11:15 AM 82.8 °F 92.9 °F 78.4 °F 87% 30.11 in 10.0 mi East 8.1 mph - N/A   Clear
11:35 AM 83.1 °F 92.6 °F 77.5 °F 83% 30.11 in 10.0 mi SE 5.8 mph - N/A   Clear
11:55 AM 83.8 °F 94.3 °F 77.9 °F 82% 30.11 in 10.0 mi SE 5.8 mph - N/A   Clear
12:15 PM 83.1 °F 92.3 °F 77.2 °F 82% 30.10 in 10.0 mi SE 9.2 mph - N/A   Clear
12:35 PM 82.9 °F 92.4 °F 77.5 °F 84% 30.09 in 10.0 mi ESE 6.9 mph - N/A   Clear
12:55 PM 83.7 °F 93.4 °F 77.2 °F 81% 30.08 in 10.0 mi ESE 8.1 mph - N/A   Clear
1:15 PM 83.5 °F 92.6 °F 76.8 °F 80% 30.07 in 10.0 mi SE 8.1 mph - N/A   Clear
1:35 PM 83.8 °F 94.3 °F 77.7 °F 82% 30.06 in 10.0 mi ESE 9.2 mph - N/A   Clear
1:55 PM 83.7 °F 93.8 °F 77.7 °F 82% 30.05 in 10.0 mi SE 10.4 mph - N/A   Clear
2:35 PM 83.5 °F 93.6 °F 77.9 °F 83% 30.05 in 10.0 mi ESE 10.4 mph - N/A   Scattered Clouds
2:55 PM 82.8 °F 92.2 °F 77.7 °F 85% 30.04 in 10.0 mi SE 10.4 mph - N/A   Scattered Clouds
3:15 PM 82.9 °F 92.4 °F 77.7 °F 84% 30.04 in 10.0 mi ESE 10.4 mph - N/A   Scattered Clouds
3:35 PM 82.6 °F 91.4 °F 77.2 °F 84% 30.04 in 10.0 mi ESE 10.4 mph - N/A   Scattered Clouds
3:55 PM 82.8 °F 91.6 °F 77.0 °F 83% 30.04 in 10.0 mi SE 9.2 mph - N/A   Clear
4:15 PM 82.4 °F 91.2 °F 77.4 °F 85% 30.03 in 10.0 mi SE 9.2 mph - N/A   Clear
4:35 PM 82.4 °F 90.9 °F 77.2 °F 84% 30.03 in 10.0 mi SE 10.4 mph - N/A   Scattered Clouds
4:55 PM 82.0 °F 90.5 °F 77.5 °F 86% 30.03 in 10.0 mi SE 9.2 mph - N/A   Clear
5:15 PM 82.0 °F 90.5 °F 77.4 °F 86% 30.03 in 10.0 mi SE 9.2 mph - N/A   Clear
5:35 PM 81.3 °F 89.0 °F 77.5 °F 88% 30.03 in 10.0 mi SE 8.1 mph - N/A   Clear
5:55 PM 81.0 °F 88.1 °F 77.5 °F 89% 30.03 in 10.0 mi ESE 6.9 mph - N/A   Clear
6:15 PM 80.1 °F 86.1 °F 77.5 °F 92% 30.03 in 10.0 mi SE 9.2 mph - N/A   Clear
6:35 PM 79.5 °F - 77.5 °F 94% 30.02 in 10.0 mi SE 9.2 mph - N/A   Clear
6:55 PM 79.0 °F - 77.5 °F 95% 30.02 in 10.0 mi ESE 6.9 mph - N/A   Clear
7:15 PM 79.0 °F - 77.5 °F 95% 30.03 in 10.0 mi SE 9.2 mph - N/A   Clear
7:35 PM 79.0 °F - 77.7 °F 96% 30.03 in 10.0 mi SE 5.8 mph - N/A   Clear
7:55 PM 78.8 °F - 77.2 °F 95% 30.03 in 10.0 mi SE 9.2 mph - N/A   Clear
8:15 PM 78.8 °F - 77.2 °F 95% 30.03 in 10.0 mi SE 8.1 mph - N/A   Clear
8:35 PM 78.6 °F - 77.4 °F 96% 30.03 in 10.0 mi SE 9.2 mph - N/A   Clear
8:55 PM 78.6 °F - 77.4 °F 96% 30.03 in 10.0 mi SSE 8.1 mph - N/A   Clear
9:15 PM 78.8 °F - 77.5 °F 96% 30.03 in 10.0 mi SSE 10.4 mph - N/A   Clear
9:35 PM 78.8 °F - 77.7 °F 96% 30.04 in 10.0 mi SSE 8.1 mph - N/A   Clear
9:55 PM 78.8 °F - 77.7 °F 96% 30.04 in 10.0 mi SSE 9.2 mph - N/A   Clear
10:15 PM 78.8 °F - 77.7 °F 96% 30.05 in 10.0 mi SSE 8.1 mph - N/A   Clear
10:35 PM 78.6 °F - 77.2 °F 95% 30.05 in 10.0 mi SSE 8.1 mph - N/A   Clear
10:55 PM 78.4 °F - 77.0 °F 95% 30.05 in 10.0 mi SSE 9.2 mph - N/A   Clear
11:15 PM 78.4 °F - 77.0 °F 95% 30.05 in 10.0 mi SSE 9.2 mph - N/A   Clear
11:35 PM 78.4 °F - 77.2 °F 96% 30.04 in 10.0 mi SSE 8.1 mph - N/A   Clear
11:55 PM 78.4 °F - 77.4 °F 96% 30.05 in 10.0 mi SSE 6.9 mph - N/A   Clear